Weather in Hirske

Ukraine / Luhansk Region     48°44′28″N   38°29′41″E
temp.,
°C
wind,
m/s
gust,
m/s
humid.,
%
clouds,
%
prec.,
mm/h
press.,
hPa
HPBL,
m
29 june, wed
wed2900:00+20nne36905 0.1 1015109
03:00+19ene410940 0.1 1015282
06:00+19ne48937 0.5 1016287
09:00+24ene57695 0.5 1017773
12:00+27ne66465 0.0 10171843
15:00+28ne55375 0.0 10162091
18:00+26ne553848 0.0 10161482
21:00+20nne51151100 0.0 1017311
30 june, thu
thu3000:00+17ne3106182 0.0 1017237
03:00+15ene2368100 0.0 101759
06:00+16ene246865 0.0 1017129
09:00+21e2347100 0.0 1017544
12:00+21nne4451100 0.1 1017799
15:00+18n3465100 0.2 1017193
18:00+18sw116782 0.1 1016107
21:00+16nnw12681 0.1 101611
1 july, fri
fri100:00+14n22771 0.0 101612
03:00+13nne227750 0.0 101617
06:00+15n23720 0.0 101699
09:00+22n34520 0.0 1016809
12:00+25nne553741 0.0 10162562
15:00+26nne66318 0.0 10152757
18:00+25nne66377 0.0 10152111
21:00+18nne37572 0.0 1017116
2 july, sat
sat200:00+15ne236944 0.0 101843
03:00+13ne35670 0.0 101975
06:00+13ne25670 0.0 1020148
09:00+19nne34430 0.0 10201260
12:00+23nne34330 0.0 10201884
15:00+25n44280 0.0 10192102
18:00+23n553413 0.0 10191760
21:00+17n225591 0.0 102016
3 july, sun
sun300:00+15w11641 0.0 101911
03:00+15wsw22652 0.0 101816
06:00+16wsw2763100 0.0 1018181
09:00+23wnw565127 0.0 1017766
12:00+28nnw47432 0.1 10161919
15:00+28n693973 0.1 10152395
18:00+28nne674161 0.0 10142193
21:00+21ne23601 0.0 101730